www.pogodaiklimat.ru

Погода и климат >> Архив погоды >> Финляндия >> Йоэнсуу


ПОГОДА в Йоэнсуу

  • Прогноз погоды в Йоэнсуу
  • Монитор погоды в Йоэнсуу

АРХИВ ПОГОДЫ в Йоэнсуу

Время (UTC), дата Ветер
(напр.,м/с)
 
Видим.   Явления Облачность Т
(С)
Тd
(С)
f
(%)
Тe
(С)
Тes
(С)
Комфортность P
(гПа)
Po
(гПа)
Тmin
(С)
Tmax
(С)
R
(мм)
R24
(мм)
S
(см)
12 12.06 30 км ясно +13.8 -1.3 35 1029.5 1019.3
15 12.06 35 км ясно +13.9 -3.0 31 1028.7 1018.5
18 12.06 50 км ясно +12.3 -1.3 39 1028.7 1018.5 +10.3 +14.8
21 12.06 50 км 4/0
[]
+8.8 +0.9 58 1029.3 1018.9
00 13.06 50 км 9/0
[]
+8.2 +0.1 57 1030.0 1019.6
03 13.06 40 км 1/0
[]
+9.7 +2.3 60 1030.2 1019.9
06 13.06 35 км 3/0
[]
+11.7 +1.8 51 1029.5 1019.2 +7.6 +12.5
09 13.06 35 км 5/3
[]
+13.2 +1.3 44 1028.4 1018.2
12 13.06 45 км 9/9
[]
+13.1 +2.0 47 1027.1 1016.9
15 13.06 40 км слаб. дождь 10/10
[]
+12.9 +3.6 53 1025.0 1014.8
18 13.06 35 км 10/10 2000 м
[]
+12.5 +4.1 57 1022.5 1012.4 +11.3 +13.8
21 13.06 35 км 10/10 2000 м
[]
+11.9 +5.3 64 1022.4 1012.3
00 14.06 40 км 10/10 2000 м
[]
+12.2 +4.3 58 1021.0 1010.9
03 14.06 40 км слаб. ливневой дождь 9/9 2000 м
[]
+11.9 +5.7 66 1019.4 1009.3
06 14.06 30 км 9/9
[]
+15.5 +7.5 59 1019.1 1009.1 +11.8 +15.5
09 14.06 35 км ясно +16.8 +7.3 53 1019.1 1009.1
12 14.06 35 км ясно +18.7 +7.5 48 1018.3 1008.4
15 14.06 40 км ясно +18.2 +7.5 50 1016.9 1007.0
18 14.06 40 км 10/10
[]
+16.0 +9.0 63 1015.7 1005.7 +14.9 +19.6
21 14.06 50 км морось 10/10
[]
+15.1 +6.8 58 1015.2 1005.3
00 15.06 30 км слаб. дождь 10/10
[]
+13.4 +9.0 75 1014.8 1004.8
03 15.06 14 км слаб. морось 10/10
[]
+12.2 +10.9 92 1014.2 1004.1
06 15.06 40 км в посл. час дождь 9/9
[]
+13.7 +11.1 84 1014.3 1004.3 +12.1 +16.1 3
09 15.06 30 км 3/0
[]
+16.4 +9.4 63 1014.4 1004.5
12 15.06 29 км ясно +17.8 +10.1 61 1014.5 1004.6
15 15.06 40 км 9/9
[]
+17.8 +10.5 62 1014.3 1004.4
18 15.06 50 км ясно +16.8 +12.5 76 1014.2 1004.3 +13.7 +19.4
21 15.06 40 км ясно +13.5 +11.7 89 1014.2 1004.2
00 16.06 45 км ясно +12.4 +10.7 89 1014.0 1004.0
03 16.06 45 км ясно +14.3 +11.7 84 1013.8 1003.9
06 16.06 40 км ясно +19.4 +11.1 59 1013.7 1003.9 +12.3 +19.7
09 16.06 35 км ясно +21.2 +8.8 45 1013.2 1003.4
12 16.06 27 км ясно +23.9 +6.7 33 1012.1 1002.4
15 16.06 35 км ясно +22.4 +5.5 33 1011.0 1001.3
18 16.06 50 км ясно +18.3 +11.7 65 1010.7 1000.9 +18.3 +24.6
21 16.06 50 км ясно +14.5 +10.0 74 1010.5 1000.6
00 17.06 45 км 3/3 2000 м
[]
+13.9 +10.8 82 1010.3 1000.4
03 17.06 40 км 3/3
[]
+15.4 +11.7 79 1010.5 1000.5
06 17.06 40 км 8/8 2000 м
[]
+17.8 +13.1 74 1010.6 1000.8 +13.1 +18.3
09 17.06 45 км ясно +23.0 +9.6 43 1010.2 1000.5
12 17.06 35 км ясно +25.4 +8.0 33 1009.4 999.8
15 17.06 35 км ясно +23.2 +12.6 51 1008.8 999.1
18 17.06 45 км 1/1
[]
+20.2 +13.3 65 1008.3 998.5 +17.8 +25.6
21 17.06 50 км 9/8
[]
+18.4 +12.8 70 1008.2 998.4
00 18.06 50 км в посл. час дождь 10/10
[]
+17.2 +12.8 75 1008.7 998.9
03 18.06 45 км 8/8
[]
+16.7 +13.1 79 1008.7 998.9
06 18.06 45 км ясно +20.3 +11.8 58 1008.6 998.8 +16.1 +20.6
09 18.06 35 км 8/8 1000 м
[]
+24.3 +13.9 52 1008.8 999.2
12 18.06 30 км 1/1 1000 м
[]
+22.8 +11.4 49 1009.6 999.9
15 18.06 30 км 1/1 2000 м
[]
+23.2 +9.2 41 1009.6 1000.0
18 18.06 50 км ясно +19.9 +12.8 64 1009.5 999.8 +19.9 +25.0
21 18.06 45 км ясно +16.8 +12.5 76 1010.2 1000.4
00 19.06 45 км ясно +14.8 +10.3 74 1011.3 1001.4
03 19.06 30 км 6/6
[]
+17.1 +11.7 71 1011.1 1001.2
06 19.06 40 км 1/0
[]
+19.5 +13.1 66 1011.0 1001.2 +14.5 +19.9

 

Местоположение метеостанции Йоэнсуу (Финляндия): широта 62.60 долгота 29.72 высота над уровнем моря 119 м.

В архиве по умолчанию представлена погода в Йоэнсуу за последнюю неделю. Архивные данные за месяц целиком и за предыдущие месяцы, начиная с января 2011 года, Вы можете получить, выбрав интересующий диапазон дат из раскрывающегося списка и нажав кнопку "Ввод!".


*Определитесь, кто Вы:
робот инопланетянин человек

Внимание! Время в таблицах - всемирное. Для получения местного времени необходимо прибавить поправку, которая равна 1 ч.

Смотрите также архив погоды в соседних городах и на ближайших метеорологических станциях:

Погода в Липери Туискаванлуото (Финляндия) (6 км)
Погода в Йоэнсуу аэропорту (Финляндия) (9 км)
Погода в Тохмаярви (Финляндия) (52 км)
Погода в Мекриярви (Финляндия) (67 км)
Погода в Вяртсиле (Карелия, Россия) (68 км)
Погода в Юуке (Финляндия) (74 км)
Погода в Лиексе (Финляндия) (82 км)
Погода в Савонлинне (Финляндия) (83 км)
Погода в Рантасалми Руккаслю (Финляндия) (84 км)
Погода в Иломанци Поцонваара (Финляндия) (90 км)

Пояснения к столбцам:

Ветер - указаны скорость ветра в м/с - средняя за 10 мин, порывы в срок и между сроками (в фигурных скобках) и направление, откуда дует ветер: С - северный, СВ - северо-восточный, В - восточный, ЮВ - юго-восточный, Ю - южный, ЮЗ - юго-западный, З - западный, СЗ - северо-западный.
Видимость - горизонтальная дальность видимости в метрах или километрах. При видимости от 1 до 10 км при отсутствии осадков обычно наблюдается дымка, при ухудшении видимости до 1 км и менее - туман. В сухую погоду видимость может ухудшаться дымом, пылью или мглою.
Явления - указаны атмосферные явления, наблюдавшиеся в срок или в последний час перед сроком; фигурными скобками обозначены явления, наблюдавшиеся между сроками (за 1-3 часа до срока); квадратными скобками обозначены град или гололедные отложения с указанием их диаметра в мм.
Облачность - указаны через наклонную черту общая и нижняя облачность в баллах и высота нижней границы облаков в метрах; квадратными скобками обозначены формы облаков: Ci - перистые, Cs - перисто-слоистые, Cc - перисто-кучевые, Ac - высококучевые, As - высокослоистые, Sc - слоисто-кучевые, Ns - слоисто-дождевые, Cu - кучевые, Cb - кучево-дождевые. Подробнее классификацию облаков см. в Атласе облаков (PDF).
T - Температура воздуха - температура, измеренная на высоте 2 м над землей.
Td - Температура точки росы - температура, при понижении до которой содержащийся в воздухе водяной пар достигнет насыщения.
f - Относительная влажность воздуха - влажноcть воздуха, измеренная на высоте 2 м над землей.
Te - Эффективная температура - температура, которую ощущает одетый по сезону человек в тени. Характеристика душности погоды. При расчете учитывается влияние влажности воздуха и скорости ветра на теплоощущения человека.
Tes - Эффективная температура на солнце - температура, которую ощущает человек, с поправкой на солнечный нагрев. Характеристика знойности погоды. Зависит от высоты солнца над горизонтом, облачности и скорости ветра. Ночью, в пасмурную погоду, а также при ветре 12 м/с и более поправка равна нулю.
P - Атмосферное давление - приведенное к уровню моря атмосферное давление.
Po - Атмосферное давление - измеренное на уровне метеостанции атмосферное давление.
Tmin - Минимальная температура - минимум температуры воздуха на высоте 2 м над землей.
Tmax - Максимальная температура - максимум температуры воздуха на высоте 2 м над землей.
R - Количество осадков - Количество выпавших осадков за период времени, мм. При наведении курсора мыши на число - период времени, за который выпало указанное количество осадков.
R24 - Количество осадков - Количество выпавших осадков за 24 часа, мм.
S - Снежный покров - Высота снежного покрова, см. При наведении курсора мыши на число - состояние снежного покрова и степень покрытия местности в баллах.